DW8913 Weather Reports


time (UTC)temp
C
wind
direction
speed
KPH
gust
KPH
rain 1hr
cm
rain 24hr
cm
rain mn
cm
humidity
%
barometer
mb
20260502193100 16 38 0.0 3.2 0.00 0.00 0.00 51 1010.1
20260502191523 16 110 0.0 1.6 0.00 0.00 0.00 61 1010.2
20260502184541 15 27 1.6 8.0 0.00 0.00 0.00 66 1010.5
20260502183106 13 43 0.0 6.4 0.00 0.00 0.00 70 1010.8
20260502181536 14 255 1.6 6.4 0.00 0.00 0.00 69 1010.9
20260502163040 14 212 0.0 3.2 0.00 0.00 0.00 59 1011.6
20260502161538 15 219 0.0 1.6 0.00 0.00 0.00 61 1011.8
20260502151537 13 51 0.0 6.4 0.00 0.00 0.00 64 1011.9
20260502123107 12 18 0.0 3.2 0.00 0.00 0.00 78 1012.1
20260502121531 11 8 0.0 4.8 0.00 0.00 0.00 80 1012.2
20260502120111 11 4 0.0 3.2 0.00 0.00 0.00 82 1012.1
20260502114549 11 255 0.0 3.2 0.00 0.00 0.00 84 1012.0
20260502113017 10 254 0.0 1.6 0.00 0.00 0.00 86 1012.0
20260502111557 10 205 0.0 0.0 0.00 0.00 0.00 87 1012.1
20260502110026 10 327 0.0 0.0 0.00 0.00 0.00 87 1012.1
20260502104607 10 327 0.0 0.0 0.00 0.00 0.00 86 1011.9
20260502103033 9 327 0.0 0.0 0.00 0.00 0.00 85 1011.7
20260502101502 9 327 0.0 0.0 0.00 0.00 0.00 85 1011.3
20260502100107 9 328 0.0 0.0 0.00 0.00 0.00 86 1011.3
20260502091527 9 327 0.0 0.0 0.00 0.00 0.00 86 1011.5
20260502090106 9 327 0.0 0.0 0.00 0.00 0.00 86 1011.6
20260502070047 10 161 0.0 4.8 0.00 0.00 0.00 83 1011.5
20260502064506 10 96 1.6 6.4 0.00 0.00 0.00 84 1011.8
20260502063052 10 95 1.6 6.4 0.00 0.00 0.00 85 1011.9
20260502061520 10 175 3.2 9.7 0.00 0.00 0.00 85 1011.9
20260502054540 10 360 1.6 9.7 0.00 0.00 0.00 85 1012.2
20260502053004 10 146 0.0 6.4 0.00 0.00 0.00 85 1012.5
20260502051546 10 52 1.6 6.4 0.00 0.00 0.00 84 1012.7
20260502050021 10 77 0.0 9.7 0.00 0.00 0.00 83 1012.8
20260502044608 10 107 0.0 8.0 0.00 0.00 0.00 83 1012.8
20260502043036 10 121 3.2 11.3 0.00 0.00 0.00 83 1012.6
20260502041508 10 125 1.6 12.9 0.00 0.00 0.00 82 1012.7
20260502040053 10 136 3.2 11.3 0.00 0.00 0.00 82 1012.6
20260502034524 10 88 3.2 11.3 0.00 0.00 0.00 82 1012.3
20260502033106 10 192 3.2 14.5 0.00 0.00 0.00 82 1012.1
20260502031538 10 110 4.8 12.9 0.00 0.00 0.00 82 1012.2
20260502030009 10 79 3.2 12.9 0.00 0.00 0.00 82 1012.4
20260502024549 10 126 3.2 9.7 0.00 0.00 0.00 82 1012.7
20260502023014 10 117 3.2 11.3 0.00 0.00 0.00 81 1013.1
20260502021600 10 150 1.6 12.9 0.00 0.00 0.00 81 1013.0
20260502020038 10 115 1.6 9.7 0.00 0.00 0.00 81 1013.0
20260502014505 10 163 3.2 11.3 0.00 0.03 0.00 82 1012.8
20260502013047 10 184 3.2 9.7 0.00 0.03 0.00 83 1012.7
20260502011516 10 63 3.2 12.9 0.00 0.03 0.00 83 1012.6
20260502010101 10 155 3.2 9.7 0.00 0.03 0.00 82 1012.5
20260502004532 10 215 4.8 9.7 0.00 0.03 0.00 81 1012.4
20260502003007 10 161 1.6 11.3 0.00 0.03 0.00 80 1012.3
20260502001556 10 111 0.0 11.3 0.00 0.03 0.00 79 1012.3
20260502000025 11 201 3.2 11.3 0.00 0.03 0.00 77 1012.3
20260501234612 11 84 3.2 11.3 0.00 0.03 0.00 75 1012.0
20260501233040 11 70 3.2 11.3 0.00 0.03 0.00 75 1011.8
20260501231513 11 150 3.2 11.3 0.00 0.03 0.00 74 1011.7
20260501230053 11 67 3.2 11.3 0.00 0.03 0.00 73 1011.7
20260501224527 11 77 1.6 8.0 0.00 0.03 0.00 73 1011.7
20260501223113 12 88 1.6 12.9 0.00 0.03 0.00 71 1011.7
20260501221543 12 130 3.2 11.3 0.00 0.03 0.00 72 1011.9
20260501220021 12 68 3.2 9.7 0.00 0.03 0.00 70 1012.0
20260501214556 12 98 3.2 11.3 0.00 0.03 0.00 70 1012.1
20260501213025 13 211 4.8 12.9 0.00 0.03 0.00 69 1012.0
20260501211609 13 27 4.8 12.9 0.00 0.03 0.00 70 1012.0
20260501210031 13 213 3.2 11.3 0.00 0.03 0.00 68 1012.0
20260501204611 13 55 1.6 9.7 0.00 0.03 0.00 69 1011.8
20260501203054 13 162 4.8 12.9 0.00 0.03 0.00 67 1011.9
20260501201507 13 122 4.8 14.5 0.00 0.03 0.00 64 1011.9
20260501200052 14 98 3.2 14.5 0.00 0.03 0.00 66 1012.0
20260501194521 15 158 6.4 11.3 0.00 0.03 0.00 63 1012.0